Location: Unspecified
(26.1990°N, 0.0000°E)
Time: 03:12:37
(UTC+00:00)

NOSS 3-2 (A) - Visible Passes

Search period start: 05 April 2026 00:00
Search period end: 15 April 2026 00:00
Orbit: 669 x 1534 km, 63.4° (Epoch: 2 January)

Date Brightness Start Highest point End Pass type
(mag) Time Alt. Az. Time Alt. Az. Time Alt. Az.
5 Apr 5.1 20:51:04 10° N 20:56:42 35° NE 20:56:42 35° NE visible
5 Apr 6.0 22:41:32 10° NW 22:44:04 22° NW 22:44:04 22° NW visible
6 Apr 5.3 20:05:48 10° N 20:11:59 24° NE 20:12:24 23° ENE visible
6 Apr 5.2 21:55:03 10° NNW 21:59:46 40° NW 21:59:46 40° NW visible
7 Apr 5.8 19:21:23 10° NNE 19:25:19 14° NE 19:28:10 12° ENE visible
7 Apr 4.5 21:08:57 10° NNW 21:15:33 61° N 21:15:33 61° N visible
7 Apr 6.4 23:01:38 10° WNW 23:02:54 14° WNW 23:02:54 14° WNW visible
8 Apr 4.5 20:23:08 10° NNW 20:30:52 46° ENE 20:31:23 46° ENE visible
8 Apr 5.6 22:14:11 10° NW 22:18:45 29° WNW 22:18:45 29° WNW visible
9 Apr 5.1 19:37:40 10° N 19:44:28 29° NE 19:47:17 25° E visible
9 Apr 4.7 21:27:29 10° NW 21:34:40 57° W 21:34:40 57° W visible
10 Apr 5.6 18:52:46 10° N 18:57:55 18° NE 19:03:17 10° E visible
10 Apr 4.1 20:41:13 10° NNW 20:49:29 88° ENE 20:50:40 72° SSE visible
10 Apr 6.3 22:35:02 10° WNW 22:38:03 15° W 22:38:03 15° W visible
11 Apr 4.4 19:55:16 10° NNW 20:03:16 57° ENE 20:06:45 38° ESE visible
11 Apr 5.6 21:46:59 10° NW 21:54:00 29° WSW 21:54:09 29° WSW visible
12 Apr 4.9 19:09:38 10° N 19:16:56 36° ENE 19:22:56 18° ESE visible
12 Apr 4.9 21:00:01 10° NW 21:07:58 48° WSW 21:10:21 40° SSW visible
13 Apr 4.4 20:13:34 10° NNW 20:21:50 76° WSW 20:26:38 33° SSE visible
13 Apr 6.5 22:09:16 10° W 22:12:11 12° WSW 22:14:03 11° WSW visible
14 Apr 4.3 19:27:28 10° NNW 19:35:38 70° ENE 19:43:02 18° SE visible
14 Apr 6.0 21:19:58 10° WNW 21:26:16 23° WSW 21:30:28 17° SW visible
